Zurück zum Katalog

SL-6 R/B(2)

AktivHEO
NORAD 19557·ROCKET BODY·🇷🇺 Russia

Gestartet Oct 3, 1988 von Plesetsk Cosmodrome

Loading…

Nächste Überflüge (nächste 24 Stunden)

TLE

AlterndSource: Space-Track

Epoche: Aug 28, 2026, 08:30 UTC

1 19557U 88092D   26240.35486000 -.00000062  00000-0  00000+0 0  9992
2 19557  69.3146  95.5627 5698424  36.9075 134.3541  2.04133198282510

Verfolge SL-6 R/B(2) in Echtzeit mit AllMySat

Download on the App Store